Hourly Data Report for October 20, 2016

All times are specified in Local Standard Time (LST). Add 1 hour to adjust for Daylight Saving Time where and when it is observed.

PENTICTON A
BRITISH COLUMBIA

49°27'45.000" N
119°36'08.000" W
344.40 m
1126146
71889
YYF

Download Data

Hourly Data (October 2016)
Hourly Data Report for October 20, 2016
Temp Definition
°C
Dew Point Temp Definition
°C
Rel Hum Definition
%
Wind Dir Definition
10's deg

Wind Spd Definition
km/h
Visibility Definition
km
Stn Press Definition
kPa
Hmdx Definition


Wind Chill Definition


Weather Definition


TIME
00:00 Legend Double Dagger 11.1 5.9 70 19 46 24.1 97.93     Rain Showers
01:00 Legend Double Dagger 10.9 5.9 71 18 40 24.1 97.93     Rain
02:00 Legend Double Dagger 9.5 6.4 81 19 33 24.1 97.85     Rain
03:00 Legend Double Dagger 10.3 5.7 73 18 35 24.1 97.72     LegendNANA
04:00 Legend Double Dagger 9.8 5.8 76 21 27 24.1 97.71     Rain
05:00 Legend Double Dagger 9.4 6.7 83 18 18 19.3 97.66     Rain
06:00 Legend Double Dagger 9.2 7.5 89 17 16 16.1 97.65     Rain
07:00 Legend Double Dagger 9.4 7.5 88 17 12 19.3 97.68     Rain
08:00 Legend Double Dagger 9.5 8.3 92 16 15 24.1 97.58     LegendNANA
09:00 Legend Double Dagger 10.0 7.6 85 19 32 19.3 97.55     Rain Showers
10:00 Legend Double Dagger 10.2 8.5 89 17 32 24.1 97.41     Rain Showers
11:00 Legend Double Dagger 11.1 7.8 80 18 27 24.1 97.46     Rain Showers
12:00 Legend Double Dagger 11.1 8.7 85 16 20 24.1 97.34     LegendNANA
13:00 Legend Double Dagger 11.9 8.8 81 16 12 24.1 97.41     Mostly Cloudy
14:00 Legend Double Dagger 12.1 8.0 76 18 29 24.1 97.36     LegendNANA
15:00 Legend Double Dagger 11.7 8.0 78 18 28 24.1 97.34     LegendNANA
16:00 Legend Double Dagger 11.6 8.3 80 18 22 24.1 97.36     Mostly Cloudy
17:00 Legend Double Dagger 11.4 7.7 78 18 35 24.1 97.37     Rain Showers
18:00 Legend Double Dagger 10.6 8.0 84 19 18 24.1 97.49     LegendNANA
19:00 Legend Double Dagger 10.8 8.2 84 19 21 24.1 97.56     Mostly Cloudy
20:00 Legend Double Dagger 10.9 7.6 80 18 25 24.1 97.58     LegendNANA
21:00 Legend Double Dagger 10.5 7.6 82 17 19 24.1 97.65     LegendNANA
22:00 Legend Double Dagger 10.1 7.2 82 19 18 24.1 97.68     Mainly Clear
23:00 Legend Double Dagger 9.2 7.3 88 15 12 24.1 97.76     LegendNANA

Notes on Data Quality.

Legend

  • E = Estimated
  • M = Missing
  • NA = Not Available
  • ‡ = Partner data that is not subject to review by the National Climate Archives
Date modified: